When you browse on this site, cookies collect data to enhance your experience and personalize the content and advertising you see.
Visit our Privacy Policy to learn more. By continuing to use the site, you agree to this use of cookies and data.
  • In Hungary
  • List of Countries
  • For 7 days
  • Water Temperature
  • Weather Map
  • News
  • Weather Widgets
  • user-avatar
    Login

    Hourly Weather Dubovivka

    Today, 23 August, Friday

    Time Temperature Precipitation Wind Pressure Humidity
    00:00 +24°C° 0 mm 3 mps 758 mmHg 62%
    01:00 +24°C° 0 mm 3 mps 758 mmHg 64%
    02:00 +22°C° 0 mm 3 mps 758 mmHg 65%
    03:00 +22°C° 0 mm 3 mps 759 mmHg 67%
    04:00 +21°C° 0 mm 3 mps 759 mmHg 69%
    05:00 +21°C° 0 mm 3 mps 759 mmHg 71%
    06:00 +21°C° 0 mm 3 mps 759 mmHg 73%
    07:00 +22°C° 0 mm 4 mps 759 mmHg 68%
    08:00 +25°C° 0 mm 4 mps 759 mmHg 63%
    09:00 +27°C° 0 mm 5 mps 759 mmHg 57%
    10:00 +28°C° 0 mm 5 mps 759 mmHg 53%
    11:00 +30°C° 0 mm 5 mps 759 mmHg 50%
    12:00 +32°C° 0 mm 5 mps 759 mmHg 46%
    13:00 +32°C° 0 mm 5 mps 759 mmHg 45%
    14:00 +32°C° 0 mm 5 mps 759 mmHg 45%
    15:00 +33°C° 0 mm 5 mps 759 mmHg 44%
    16:00 +32°C° 0 mm 5 mps 758 mmHg 47%
    17:00 +30°C° 0 mm 4 mps 758 mmHg 50%
    18:00 +30°C° 0 mm 4 mps 758 mmHg 53%
    19:00 +28°C° 0 mm 4 mps 759 mmHg 58%
    20:00 +27°C° 0 mm 4 mps 759 mmHg 62%
    21:00 +25°C° 0 mm 4 mps 759 mmHg 67%
    22:00 +25°C° 0 mm 4 mps 759 mmHg 70%
    23:00 +23°C° 0 mm 4 mps 759 mmHg 72%

    Tomorrow, 24 August, Saturday

    Time Temperature Precipitation Wind Pressure Humidity
    00:00 +23°C° 0 mm 4 mps 759 mmHg 75%
    01:00 +22°C° 0 mm 4 mps 759 mmHg 79%
    02:00 +22°C° 0 mm 4 mps 759 mmHg 82%
    03:00 +21°C° 0 mm 4 mps 759 mmHg 86%
    04:00 +21°C° 0 mm 4 mps 759 mmHg 88%
    05:00 +20°C° 0 mm 4 mps 759 mmHg 89%
    06:00 +20°C° 0 mm 4 mps 759 mmHg 91%
    07:00 +21°C° 0 mm 4 mps 759 mmHg 85%
    08:00 +22°C° 0 mm 5 mps 759 mmHg 78%
    09:00 +25°C° 0 mm 5 mps 759 mmHg 72%
    10:00 +26°C° 0 mm 5 mps 759 mmHg 66%
    11:00 +28°C° 0 mm 5 mps 759 mmHg 60%
    12:00 +29°C° 0 mm 5 mps 759 mmHg 53%
    13:00 +30°C° 0 mm 5 mps 759 mmHg 52%
    14:00 +30°C° 0 mm 5 mps 759 mmHg 50%
    15:00 +32°C° 0 mm 5 mps 759 mmHg 49%
    16:00 +30°C° 0 mm 5 mps 758 mmHg 51%
    17:00 +29°C° 0 mm 5 mps 758 mmHg 54%
    18:00 +29°C° 0 mm 4 mps 758 mmHg 57%
    19:00 +27°C° 0 mm 4 mps 758 mmHg 61%
    20:00 +26°C° 0 mm 4 mps 758 mmHg 66%
    21:00 +25°C° 0 mm 4 mps 759 mmHg 70%
    22:00 +23°C° 0 mm 4 mps 759 mmHg 72%
    23:00 +23°C° 0 mm 4 mps 759 mmHg 73%

    Day after tomorrow, 25 August, Sunday

    Time Temperature Precipitation Wind Pressure Humidity
    00:00 +22°C° 0 mm 4 mps 759 mmHg 74%
    01:00 +22°C° 0 mm 5 mps 758 mmHg 75%
    02:00 +21°C° 0 mm 5 mps 758 mmHg 75%
    03:00 +21°C° 0 mm 5 mps 758 mmHg 76%
    04:00 +21°C° 0 mm 5 mps 758 mmHg 76%
    05:00 +20°C° 0 mm 5 mps 759 mmHg 76%
    06:00 +20°C° 0 mm 4 mps 759 mmHg 76%
    07:00 +21°C° 0 mm 5 mps 759 mmHg 70%
    08:00 +23°C° 0 mm 5 mps 759 mmHg 65%
    09:00 +24°C° 0 mm 6 mps 758 mmHg 60%
    10:00 +26°C° 0 mm 6 mps 758 mmHg 55%
    11:00 +28°C° 0 mm 6 mps 758 mmHg 51%
    12:00 +29°C° 0 mm 6 mps 758 mmHg 47%
    13:00 +29°C° 0 mm 6 mps 758 mmHg 45%
    14:00 +30°C° 0 mm 6 mps 758 mmHg 43%
    15:00 +30°C° 0 mm 6 mps 758 mmHg 41%
    16:00 +29°C° 0 mm 5 mps 758 mmHg 42%
    17:00 +28°C° 0 mm 5 mps 758 mmHg 43%
    18:00 +27°C° 0 mm 5 mps 758 mmHg 44%
    19:00 +26°C° 0 mm 4 mps 758 mmHg 47%
    20:00 +23°C° 0 mm 4 mps 759 mmHg 50%
    21:00 +21°C° 0 mm 4 mps 759 mmHg 53%
    22:00 +21°C° 0 mm 4 mps 759 mmHg 56%
    23:00 +20°C° 0 mm 4 mps 760 mmHg 59%

    26 August, Monday

    Time Temperature Precipitation Wind Pressure Humidity
    00:00 +19°C° 0 mm 4 mps 760 mmHg 62%
    01:00 +19°C° 0 mm 4 mps 760 mmHg 67%
    02:00 +19°C° 0 mm 4 mps 760 mmHg 72%
    03:00 +18°C° 0 mm 4 mps 760 mmHg 78%
    04:00 +18°C° 0 mm 4 mps 760 mmHg 80%
    05:00 +18°C° 0 mm 4 mps 761 mmHg 82%
    06:00 +17°C° 0 mm 4 mps 761 mmHg 84%
    07:00 +19°C° 0 mm 5 mps 761 mmHg 76%
    08:00 +20°C° 0 mm 5 mps 761 mmHg 69%
    09:00 +21°C° 0 mm 5 mps 762 mmHg 62%
    10:00 +23°C° 0 mm 5 mps 762 mmHg 57%
    11:00 +25°C° 0 mm 5 mps 762 mmHg 53%
    12:00 +26°C° 0 mm 5 mps 762 mmHg 49%
    13:00 +27°C° 0 mm 5 mps 762 mmHg 46%
    14:00 +27°C° 0 mm 5 mps 762 mmHg 44%
    15:00 +27°C° 0 mm 5 mps 762 mmHg 42%
    16:00 +27°C° 0 mm 5 mps 762 mmHg 43%
    17:00 +26°C° 0 mm 5 mps 762 mmHg 45%
    18:00 +25°C° 0 mm 4 mps 762 mmHg 47%
    19:00 +23°C° 0 mm 4 mps 762 mmHg 51%
    20:00 +21°C° 0 mm 4 mps 762 mmHg 55%
    21:00 +19°C° 0 mm 3 mps 762 mmHg 59%
    22:00 +19°C° 0 mm 3 mps 763 mmHg 61%
    23:00 +18°C° 0 mm 3 mps 763 mmHg 63%

    27 August, Tuesday

    Time Temperature Precipitation Wind Pressure Humidity
    00:00 +17°C° 0 mm 3 mps 763 mmHg 64%
    01:00 +17°C° 0 mm 3 mps 763 mmHg 67%
    02:00 +16°C° 0 mm 3 mps 763 mmHg 69%
    03:00 +16°C° 0 mm 3 mps 763 mmHg 71%
    04:00 +14°C° 0 mm 3 mps 763 mmHg 72%
    05:00 +14°C° 0 mm 3 mps 763 mmHg 73%
    06:00 +14°C° 0 mm 3 mps 763 mmHg 74%
    07:00 +17°C° 0 mm 3 mps 763 mmHg 66%
    08:00 +19°C° 0 mm 3 mps 763 mmHg 58%
    09:00 +21°C° 0 mm 3 mps 763 mmHg 51%
    10:00 +24°C° 0 mm 3 mps 763 mmHg 46%
    11:00 +25°C° 0 mm 3 mps 762 mmHg 41%
    12:00 +26°C° 0 mm 3 mps 762 mmHg 35%
    13:00 +27°C° 0 mm 3 mps 762 mmHg 33%
    14:00 +27°C° 0 mm 3 mps 761 mmHg 31%
    15:00 +28°C° 0 mm 3 mps 761 mmHg 30%
    16:00 +27°C° 0 mm 2 mps 761 mmHg 32%
    17:00 +27°C° 0 mm 2 mps 761 mmHg 35%
    18:00 +26°C° 0 mm 2 mps 761 mmHg 38%
    19:00 +24°C° 0 mm 2 mps 761 mmHg 41%
    20:00 +21°C° 0 mm 2 mps 761 mmHg 45%
    21:00 +20°C° 0 mm 2 mps 761 mmHg 48%
    22:00 +19°C° 0 mm 2 mps 761 mmHg 50%
    23:00 +18°C° 0 mm 2 mps 761 mmHg 52%

    28 August, Wednesday

    Time Temperature Precipitation Wind Pressure Humidity
    00:00 +18°C° 0 mm 2 mps 761 mmHg 54%
    01:00 +17°C° 0 mm 2 mps 761 mmHg 56%
    02:00 +17°C° 0 mm 2 mps 761 mmHg 58%
    03:00 +16°C° 0 mm 2 mps 761 mmHg 60%
    04:00 +16°C° 0 mm 2 mps 761 mmHg 63%
    05:00 +16°C° 0 mm 2 mps 761 mmHg 66%
    06:00 +15°C° 0 mm 2 mps 761 mmHg 69%
    07:00 +17°C° 0 mm 2 mps 761 mmHg 64%
    08:00 +20°C° 0 mm 2 mps 761 mmHg 60%
    09:00 +22°C° 0 mm 3 mps 761 mmHg 55%
    10:00 +24°C° 0 mm 3 mps 761 mmHg 52%
    11:00 +26°C° 0 mm 3 mps 761 mmHg 48%
    12:00 +27°C° 0 mm 3 mps 760 mmHg 45%
    13:00 +27°C° 0 mm 4 mps 760 mmHg 43%
    14:00 +28°C° 0 mm 4 mps 760 mmHg 42%
    15:00 +28°C° 0 mm 4 mps 759 mmHg 40%
    16:00 +28°C° 0 mm 4 mps 759 mmHg 43%
    17:00 +27°C° 0 mm 4 mps 759 mmHg 46%
    18:00 +26°C° 0 mm 4 mps 759 mmHg 48%
    19:00 +23°C° 0 mm 4 mps 759 mmHg 51%
    20:00 +22°C° 0 mm 4 mps 760 mmHg 53%
    21:00 +20°C° 0 mm 4 mps 760 mmHg 56%
    22:00 +19°C° 0 mm 3 mps 760 mmHg 58%
    23:00 +18°C° 0 mm 3 mps 760 mmHg 61%
    Show more